Regional Weather Roundup
Issued by NWS

Home | Current Version | Previous Version | Text Only | Print | Product List | Glossary On
Versions: 1 2 3 4 5 6 7 8 9 10 11 12 13 14 15 16 17 18 19 20 21 22 23 24 25 26 27 28 29 30 31 32 33 34 35 36 37 38 39 40 41 42 43 44 45 46 47 48 49 50
000
ASUS42 KKEY 020110
RWRKEY

FLORIDA REGIONAL WEATHER ROUNDUP FOR THE FLORIDA KEYS
NATIONAL WEATHER SERVICE KEY WEST FLORIDA
900 PM EDT WED JUL 01 2015

...SOUTH FLORIDA AND THE KEYS...

CITY           SKY/WX    TMP DP  RH WIND       PRES   REMARKS
FORT MYERS     CLOUDY    76  72  87 W3        30.10S
SW REGIONAL AP LGT RAIN  74  71  91 N5        30.11S
NAPLES         CLOUDY    76  71  85 CALM      30.08F
MIAMI          PTCLDY    85  74  69 CALM      30.12R HX  92
WEST KENDALL   PTCLDY    83  71  67 CALM      30.11S
HOMESTEAD      MOCLDY    83  74  73 NE3       30.11R HX  90
MARATHON       PTCLDY    86  75  69 E6        30.10R HX  95
BOCA CHICA NAS MOCLDY    85  74  69 E10       30.10R HX  92
KEY WEST INTL  CLEAR     86  77  74 E10       30.10R HX  97

...INTERNATIONAL WEATHER...

CITY           SKY/WX    TMP DP  RH WIND       PRES   REMARKS
NASSAU BAHAMAS MOCLDY    84  73  70 E8        30.13R HX  91
CANCUN MEXICO  PTCLDY    84  79  84 NE5       30.01R HX  96
COZUMEL MEXICO MOCLDY    73  70  88 CALM      29.99S

ADJACENT COASTAL WATERS...

STATION/POSITION TIME  SKY/WX   TEMP    WIND        PRES    WAVE
                                AIR SEA DIR/SP/G            HT/PER
                 (UTC)          (F)     (DEG/KT/KT) (MB)    (FT/S)
PULASKI SHOAL LI 0000            86      90/ 12/ 13 1018.8R
SAND KEY         0050            85      80/ 14/ 17 1019.0R
SOMBRERO KEY     0000            85      80/ 12/ 13 1019.6R
LONG KEY         0000            85 90  100/ 11/ 13 1019.8R
MOLASSES REEF    0000            84 85   90/  8/  9 1019.2S
FOWEY ROCKS      NOT AVBL

$$


USA.gov is the U.S. government's official web portal to all federal, state and local government web resources and services.